User: anonymous
Location: San Francisco
(37.7750°N, 122.4180°W)
Time: 01:17:35
(UTC-07:00)
Language:

GP-B - Orbit

View from above orbital plane
View from above orbital plane
View from above satellite
View from above satellite

Ground track
Ground track

The orbit data is extracted from the following two-line orbital elements,

1 28230U 04014A   14208.34482559  .00000319  00000-0  42445-4 0  1111
2 28230 089.8910 139.4538 0002254 093.0328 267.1152 14.77570033553120
Epoch (UTC): 27 July 2014 08:16:32
Eccentricity: 0.0002254
inclination: 89.8910°
perigee height: 635 km
apogee height: 638 km
right ascension of ascending node: 139.4538°
argument of perigee: 93.0328°
revolutions per day: 14.77570033
mean anomaly at epoch: 267.1152°
orbit number at epoch: 55312

The dashed part of the orbit path shows where the satellite is in the earth's shadow,  

DLR